WB5NHL-13 Weather Reports


Display with metric or nautical units.
time (UTC)temp
F
wind
direction
speed
MPH
gust
MPH
rain 1hr
in
rain 24hr
in
rain mn
in
humidity
%
barometer
mb
20260505160519 75 0.0 0.0 0.00 0.00 0.00 67 1016.7
20260505152531 73 0.0 0.0 0.00 0.00 0.00 74 1017.1
20260505151536 72 0.0 0.0 0.00 0.00 0.00 74 1017.1
20260505150518 71 0.0 0.0 0.00 0.00 0.00 75 1017.1
20260505140518 67 0.0 0.0 0.00 0.00 0.00 81 1016.7
20260505124524 62 0.0 0.0 0.00 0.00 0.00 92 1016.9
20260505123526 60 0.0 0.0 0.00 0.00 0.00 95 1016.8
20260505122530 59 0.0 0.0 0.00 0.00 0.00 97 1016.7
20260505121531 58 0.0 0.0 0.00 0.00 0.00 98 1016.6
20260505120516 58 0.0 0.0 0.00 0.00 0.00 99 1016.4
20260505115539 56 0.0 0.0 0.00 0.00 0.00 99 1016.2
20260505114522 56 0.0 0.0 0.00 0.00 0.00 99 1016.2
20260505113525 55 0.0 0.0 0.00 0.00 0.00 99 1016.3
20260505112521 55 0.0 0.0 0.00 0.00 0.00 99 1016.3
20260505111519 55 0.0 0.0 0.00 0.00 0.00 98 1016.2
20260505110515 55 0.0 0.0 0.00 0.00 0.00 98 1016.0
20260505101530 56 0.0 0.0 0.00 0.00 0.00 95 1015.9
20260505100532 56 0.0 0.0 0.00 0.00 0.00 95 1015.9
20260505095517 56 0.0 0.0 0.00 0.00 0.00 95 1015.8
20260505094520 56 0.0 0.0 0.00 0.00 0.00 94 1015.8
20260505093523 57 0.0 0.0 0.00 0.00 0.00 93 1015.7
20260505092526 57 0.0 0.0 0.00 0.00 0.00 93 1015.7
20260505091529 57 0.0 0.0 0.00 0.00 0.00 93 1015.7
20260505090533 57 0.0 0.0 0.00 0.00 0.00 92 1015.6
20260505085517 57 0.0 0.0 0.00 0.00 0.00 91 1015.6
20260505084520 57 0.0 0.0 0.00 0.00 0.00 89 1015.7
20260505083544 57 0.0 0.0 0.00 0.00 0.00 90 1015.5
20260505082608 58 0.0 0.0 0.00 0.00 0.00 89 1015.5
20260505081522 58 0.0 0.0 0.00 0.00 0.00 87 1015.5
20260505080519 58 0.0 0.0 0.00 0.00 0.00 87 1015.4
20260505075516 58 0.0 0.0 0.00 0.00 0.00 86 1015.3
20260505074519 59 0.0 0.0 0.00 0.00 0.00 85 1015.3
20260505073522 59 0.0 0.0 0.00 0.00 0.00 85 1015.2
20260505072526 59 0.0 0.0 0.00 0.00 0.00 85 1015.3
20260505071528 59 0.0 0.0 0.00 0.00 0.00 84 1015.4
20260505070531 59 0.0 0.0 0.00 0.00 0.00 83 1015.3
20260505065517 59 0.0 0.0 0.00 0.00 0.00 83 1015.2
20260505064539 59 0.0 0.0 0.00 0.00 0.00 81 1015.5
20260505063522 60 0.0 0.0 0.00 0.00 0.00 79 1015.5
20260505062546 60 0.0 0.0 0.00 0.00 0.00 79 1015.5
20260505061528 61 0.0 0.0 0.00 0.00 0.00 79 1015.4
20260505060531 61 0.0 0.0 0.00 0.00 0.00 77 1015.6
20260505055516 61 0.0 0.0 0.00 0.00 0.00 76 1015.5
20260505054519 62 0.0 0.0 0.00 0.00 0.00 76 1015.7
20260505053543 62 0.0 0.0 0.00 0.00 0.00 76 1015.8
20260505052524 62 0.0 0.0 0.00 0.00 0.00 75 1015.8
20260505051527 62 0.0 0.0 0.00 0.00 0.00 74 1015.8
20260505050524 63 0.0 0.0 0.00 0.00 0.00 74 1015.9
20260505041526 64 0.0 0.0 0.00 0.00 0.00 70 1015.9
20260505040529 64 0.0 0.0 0.00 0.00 0.00 69 1015.9
20260505035532 64 0.0 0.0 0.00 0.00 0.00 69 1015.7
20260505034517 64 0.0 0.0 0.00 0.00 0.00 69 1015.8
20260505033520 65 0.0 0.0 0.00 0.00 0.00 68 1015.9
20260505032542 65 0.0 0.0 0.00 0.00 0.00 68 1016.0
20260505031527 65 0.0 0.0 0.00 0.00 0.00 67 1016.0
20260505030528 65 0.0 0.0 0.00 0.00 0.00 67 1016.1
20260505025551 65 0.0 0.0 0.00 0.00 0.00 67 1016.0
20260505024516 66 0.0 0.0 0.00 0.00 0.00 67 1016.0
20260505023519 66 0.0 0.0 0.00 0.00 0.00 67 1015.8
20260505022522 66 0.0 0.0 0.00 0.00 0.00 66 1015.7
20260505021525 66 0.0 0.0 0.00 0.00 0.00 66 1015.6
20260505020528 66 0.0 0.0 0.00 0.00 0.00 65 1015.4
20260505015527 66 0.0 0.0 0.00 0.00 0.00 63 1015.4
20260505014516 66 0.0 0.0 0.00 0.00 0.00 63 1015.2
20260505013519 66 0.0 0.0 0.00 0.00 0.00 63 1015.1
20260505012517 66 0.0 0.0 0.00 0.00 0.00 64 1015.0
20260505011524 66 0.0 0.0 0.00 0.00 0.00 63 1014.8
20260505010527 67 0.0 0.0 0.00 0.00 0.00 61 1014.7
20260505005530 67 0.0 0.0 0.00 0.00 0.00 61 1014.5
20260505004533 68 0.0 0.0 0.00 0.00 0.00 60 1014.5
20260505003518 69 0.0 0.0 0.00 0.00 0.00 57 1014.4
20260505002520 70 0.0 0.0 0.00 0.00 0.00 54 1014.3
20260505001523 71 0.0 0.0 0.00 0.00 0.00 54 1014.3
20260505000526 72 0.0 0.0 0.00 0.00 0.00 52 1014.3
20260504235529 73 0.0 0.0 0.00 0.00 0.00 51 1014.3
20260504234533 74 0.0 0.0 0.00 0.00 0.00 49 1014.0
20260504233517 75 0.0 0.0 0.00 0.00 0.00 47 1014.2
20260504232520 75 0.0 0.0 0.00 0.00 0.00 47 1014.2
20260504231523 76 0.0 0.0 0.00 0.00 0.00 43 1014.2
20260504230527 77 0.0 0.0 0.00 0.00 0.00 42 1014.1
20260504225528 77 0.0 0.0 0.00 0.00 0.00 42 1014.2
20260504224525 77 0.0 0.0 0.00 0.00 0.00 40 1014.4
20260504223556 78 0.0 0.0 0.00 0.00 0.00 41 1014.4
20260504222519 78 0.0 0.0 0.00 0.00 0.00 40 1014.3
20260504221556 78 0.0 0.0 0.00 0.00 0.00 40 1014.3
20260504220525 79 0.0 0.0 0.00 0.00 0.00 38 1014.3
20260504215527 79 0.0 0.0 0.00 0.00 0.00 38 1014.1
20260504214552 78 0.0 0.0 0.00 0.00 0.00 37 1014.1
20260504213515 80 0.0 0.0 0.00 0.00 0.00 36 1014.2
20260504212520 79 0.0 0.0 0.00 0.00 0.00 38 1014.2
20260504211522 80 0.0 0.0 0.00 0.00 0.00 37 1014.1
20260504210524 82 0.0 0.0 0.00 0.00 0.00 35 1014.2
20260504205527 81 0.0 0.0 0.00 0.00 0.00 35 1014.4
20260504204531 81 0.0 0.0 0.00 0.00 0.00 36 1014.4
20260504203515 81 0.0 0.0 0.00 0.00 0.00 37 1014.4
20260504202518 81 0.0 0.0 0.00 0.00 0.00 36 1014.5
20260504201521 82 0.0 0.0 0.00 0.00 0.00 37 1014.5
20260504200524 83 0.0 0.0 0.00 0.00 0.00 32 1014.7
20260504195527 83 0.0 0.0 0.00 0.00 0.00 35 1014.8
20260504194549 83 0.0 0.0 0.00 0.00 0.00 36 1015.0
20260504193527 82 0.0 0.0 0.00 0.00 0.00 36 1015.1
20260504192517 82 0.0 0.0 0.00 0.00 0.00 37 1015.1
20260504191540 82 0.0 0.0 0.00 0.00 0.00 36 1015.2
20260504190537 82 0.0 0.0 0.00 0.00 0.00 35 1015.5
20260504185526 82 0.0 0.0 0.00 0.00 0.00 37 1015.7
20260504184529 81 0.0 0.0 0.00 0.00 0.00 38 1015.7
20260504183532 80 0.0 0.0 0.00 0.00 0.00 39 1015.8
20260504182518 81 0.0 0.0 0.00 0.00 0.00 37 1015.9
20260504181600 80 0.0 0.0 0.00 0.00 0.00 39 1015.9
20260504180523 81 0.0 0.0 0.00 0.00 0.00 39 1016.2
20260504175546 80 0.0 0.0 0.00 0.00 0.00 39 1016.3
20260504174529 80 0.0 0.0 0.00 0.00 0.00 41 1016.5
20260504173531 79 0.0 0.0 0.00 0.00 0.00 42 1016.5
20260504172516 78 0.0 0.0 0.00 0.00 0.00 43 1016.5
20260504171519 77 0.0 0.0 0.00 0.00 0.00 43 1016.5
20260504170522 76 0.0 0.0 0.00 0.00 0.00 43 1017.0